Location: Newark
(43.0000°N, 1.6781°W)
Time: 04:44:33
(UTC+00:00)

Tiros 1 despin weight - All Passes

Search period start: 14 April 2021 00:00
Search period end: 24 April 2021 00:00
Orbit: 593 x 641 km, 48.2° (Epoch: 13 April)

Date Brightness Start Highest point End Pass type
(mag) Time Alt. Az. Time Alt. Az. Time Alt. Az.
14 Apr - 07:10:33 10° SW 07:14:52 45° SE 07:19:09 10° ENE daylight
14 Apr - 08:51:54 10° W 08:56:23 58° NNW 09:00:47 10° ENE daylight
14 Apr - 10:34:08 10° WNW 10:38:25 42° N 10:42:38 10° ENE daylight
14 Apr - 12:15:52 10° WNW 12:20:21 77° NNE 12:24:45 10° ESE daylight
14 Apr - 13:57:49 10° W 14:01:34 27° SW 14:05:18 10° SSE daylight
15 Apr - 05:47:03 10° S 05:50:05 18° SE 05:53:07 10° E daylight
15 Apr - 07:26:34 10° WSW 07:31:07 76° SSE 07:35:36 10° ENE daylight
15 Apr - 09:08:31 10° W 09:12:53 46° N 09:17:11 10° ENE daylight
15 Apr - 10:50:37 10° WNW 10:54:57 48° N 10:59:15 10° E daylight
15 Apr - 12:32:15 10° WNW 12:36:40 68° SSW 12:41:02 10° SE daylight
15 Apr - 14:15:07 10° W 14:17:34 15° SW 14:20:01 10° SSW daylight
16 Apr - 06:02:04 10° SSW 06:06:08 32° SE 06:10:09 10° ENE daylight
16 Apr - 07:42:55 10° WSW 07:47:28 71° NNW 07:51:57 10° ENE daylight
16 Apr - 09:25:08 10° WNW 09:29:26 42° N 09:33:40 10° ENE daylight
16 Apr - 11:07:01 10° WNW 11:11:27 62° NNE 11:15:50 10° E daylight
16 Apr - 12:48:44 10° WNW 12:52:52 39° SW 12:56:57 10° SSE daylight
17 Apr - 04:39:45 10° SSE 04:41:27 12° SE 04:43:09 10° ESE visible
17 Apr - 06:17:49 10° SW 06:22:17 56° SSE 06:26:43 10° ENE daylight
17 Apr - 07:59:28 10° W 08:03:55 52° NNW 08:08:18 10° ENE daylight
17 Apr - 09:41:41 10° WNW 09:46:00 44° N 09:50:15 10° E daylight
17 Apr - 11:23:22 10° WNW 11:27:51 90° SSW 11:32:16 10° ESE daylight
17 Apr - 13:05:34 10° W 13:08:56 21° SW 13:12:18 10° S daylight
18 Apr - 04:53:49 10° S 04:57:25 23° SE 05:00:59 10° E daylight
18 Apr - 06:33:59 10° WSW 06:38:35 89° NNW 06:43:07 10° ENE daylight
18 Apr - 08:16:06 10° W 08:20:27 44° N 08:24:44 10° ENE daylight
18 Apr - 09:58:07 10° WNW 10:02:31 52° NNE 10:06:52 10° E daylight
18 Apr - 11:39:46 10° WNW 11:44:07 55° SSW 11:48:25 10° SE daylight
18 Apr - 13:23:43 10° WSW 13:24:54 11° SW 13:26:04 10° SSW daylight
19 Apr - 05:09:12 10° SSW 05:13:31 40° SE 05:17:46 10° ENE daylight
19 Apr - 06:50:26 10° W 06:54:58 62° NNW 06:59:27 10° ENE daylight
19 Apr - 08:32:41 10° WNW 08:37:00 42° N 08:41:16 10° ENE daylight
19 Apr - 10:14:29 10° WNW 10:18:58 72° NNE 10:23:24 10° ESE daylight
19 Apr - 11:56:21 10° W 12:00:16 31° SW 12:04:09 10° SSE daylight
20 Apr - 03:45:58 10° S 03:48:45 16° SE 03:51:32 10° E visible
20 Apr - 05:25:09 10° SW 05:29:43 70° SSE 05:34:15 10° ENE daylight
20 Apr - 07:07:02 10° W 07:11:28 48° N 07:15:50 10° ENE daylight
20 Apr - 08:49:11 10° WNW 08:53:33 46° N 08:57:52 10° E daylight
20 Apr - 10:30:50 10° WNW 10:35:19 75° SSW 10:39:44 10° SE daylight
20 Apr - 12:13:27 10° W 12:16:17 17° SW 12:19:05 10° S daylight
21 Apr - 04:00:47 10° SSW 04:04:46 29° SE 04:08:44 10° E visible
21 Apr - 05:41:27 10° WSW 05:46:04 77° NNW 05:50:36 10° ENE daylight
21 Apr - 07:23:39 10° WNW 07:28:00 43° N 07:32:18 10° ENE daylight
21 Apr - 09:05:35 10° WNW 09:10:03 59° NNE 09:14:27 10° E daylight
21 Apr - 10:47:17 10° WNW 10:51:33 43° SW 10:55:44 10° SE daylight
22 Apr - 02:39:13 10° SE 02:40:08 11° SE 02:41:02 10° ESE visible
22 Apr - 04:16:26 10° SW 04:20:54 51° SSE 04:25:21 10° ENE visible
22 Apr - 05:57:58 10° W 06:02:30 55° NNW 06:06:57 10° ENE daylight
22 Apr - 07:40:12 10° WNW 07:44:34 43° N 07:48:52 10° ENE daylight
22 Apr - 09:21:57 10° WNW 09:26:28 84° NNE 09:30:56 10° ESE daylight
22 Apr - 11:04:01 10° W 11:07:38 24° SW 11:11:12 10° SSE daylight
23 Apr - 02:52:37 10° S 02:56:03 21° SE 02:59:29 10° E visible
23 Apr - 04:32:32 10° WSW 04:37:10 84° SSE 04:41:45 10° ENE visible
23 Apr - 06:14:35 10° W 06:19:01 45° N 06:23:22 10° ENE daylight
23 Apr - 07:56:40 10° WNW 08:01:06 50° NNE 08:05:29 10° E daylight
23 Apr - 09:38:19 10° WNW 09:42:46 61° SSW 09:47:08 10° SE daylight
23 Apr - 11:21:38 10° WSW 11:23:35 13° SW 11:25:32 10° SSW daylight
